Time,TemperatureF,DewpointF,PressureIn,WindDirection,WindDirectionDegrees,WindSpeedMPH,WindSpeedGustMPH,Humidity,HourlyPrecipIn,Conditions,Clouds,dailyrainin,SolarRadiationWatts/m^2,SoftwareType,DateUTC
2013-03-20 00:00:00,33.4,27.3,29.80,NNE,26,1.0,3.0,78,0.00,,,0.49,520,WeatherCatV1.14B232,2013-03-20 04:00:00,
2013-03-20 00:01:00,33.4,27.0,29.80,NNE,26,1.0,3.0,77,0.00,,,0.00,520,WeatherCatV1.14B232,2013-03-20 04:01:00,
2013-03-20 00:06:00,33.2,26.1,29.80,NNE,26,1.0,3.0,75,0.00,,,0.00,520,WeatherCatV1.14B232,2013-03-20 04:06:00,
2013-03-20 00:08:00,33.1,26.1,29.80,NNE,25,2.0,3.0,75,0.00,,,0.00,520,WeatherCatV1.14B232,2013-03-20 04:08:00,
2013-03-20 00:11:00,33.0,26.0,29.80,NNE,25,2.0,2.0,75,0.00,,,0.00,520,WeatherCatV1.14B232,2013-03-20 04:11:00,
2013-03-20 00:16:00,32.8,25.8,29.80,NNE,25,2.0,4.0,75,0.00,,,0.00,520,WeatherCatV1.14B232,2013-03-20 04:16:00,
2013-03-20 00:21:00,32.7,25.7,29.80,NNE,25,2.0,2.0,75,0.00,,,0.00,520,WeatherCatV1.14B232,2013-03-20 04:21:00,
2013-03-20 00:26:00,32.3,25.6,29.80,NNE,26,0.0,1.0,76,0.00,,,0.00,520,WeatherCatV1.14B232,2013-03-20 04:26:00,
2013-03-20 00:31:00,32.2,25.5,29.80,NNE,25,0.0,1.0,76,0.00,,,0.00,520,WeatherCatV1.14B232,2013-03-20 04:31:00,
2013-03-20 00:36:00,32.1,25.1,29.81,NNE,26,0.0,1.0,75,0.00,,,0.00,520,WeatherCatV1.14B232,2013-03-20 04:36:00,
2013-03-20 00:41:00,32.0,25.0,29.81,NNE,25,1.0,1.0,75,0.00,,,0.00,520,WeatherCatV1.14B232,2013-03-20 04:41:00,
2013-03-20 00:46:00,31.7,25.0,29.81,NNE,26,1.0,1.0,76,0.00,,,0.00,520,WeatherCatV1.14B232,2013-03-20 04:46:00,
2013-03-20 00:51:00,31.6,24.9,29.81,NNE,25,2.0,5.0,76,0.00,,,0.00,520,WeatherCatV1.14B232,2013-03-20 04:51:00,
2013-03-20 00:56:00,31.5,24.8,29.81,NNE,26,1.0,2.0,76,0.00,,,0.00,520,WeatherCatV1.14B232,2013-03-20 04:56:00,
2013-03-20 01:01:00,31.4,24.4,29.81,NNE,26,0.0,1.0,75,0.00,,,0.00,520,WeatherCatV1.14B232,2013-03-20 05:01:00,
2013-03-20 01:06:00,31.3,24.3,29.82,NNE,26,0.0,2.0,75,0.00,,,0.00,520,WeatherCatV1.14B232,2013-03-20 05:06:00,
2013-03-20 01:11:00,31.3,24.3,29.82,NNE,26,0.0,5.0,75,0.00,,,0.00,520,WeatherCatV1.14B232,2013-03-20 05:11:00,
2013-03-20 01:16:00,31.4,24.1,29.82,NNE,26,3.0,3.0,74,0.00,,,0.00,520,WeatherCatV1.14B232,2013-03-20 05:16:00,
2013-03-20 01:21:00,31.6,23.6,29.83,NNE,26,1.0,2.0,72,0.00,,,0.00,520,WeatherCatV1.14B232,2013-03-20 05:21:00,
2013-03-20 01:26:00,31.6,23.6,29.83,NNE,26,1.0,1.0,72,0.00,,,0.00,520,WeatherCatV1.14B232,2013-03-20 05:26:00,
2013-03-20 01:31:00,31.2,23.6,29.83,NNE,25,0.0,1.0,73,0.00,,,0.00,520,WeatherCatV1.14B232,2013-03-20 05:31:00,
2013-03-20 01:36:00,31.0,23.4,29.83,NNE,26,0.0,1.0,73,0.00,,,0.00,520,WeatherCatV1.14B232,2013-03-20 05:36:00,
2013-03-20 01:41:00,30.8,23.2,29.83,NNE,26,1.0,2.0,73,0.00,,,0.00,520,WeatherCatV1.14B232,2013-03-20 05:41:00,
2013-03-20 01:46:00,30.9,22.6,29.83,NNE,26,1.0,3.0,71,0.00,,,0.00,520,WeatherCatV1.14B232,2013-03-20 05:46:00,
2013-03-20 01:51:00,30.8,22.9,29.83,NNE,26,1.0,2.0,72,0.00,,,0.00,520,WeatherCatV1.14B232,2013-03-20 05:51:00,
2013-03-20 01:56:00,30.9,22.3,29.83,NNE,26,3.0,5.0,70,0.00,,,0.00,520,WeatherCatV1.14B232,2013-03-20 05:56:00,
2013-03-20 02:01:00,30.8,22.2,29.83,NNE,26,2.0,2.0,70,0.00,,,0.00,520,WeatherCatV1.14B232,2013-03-20 06:01:00,
2013-03-20 02:06:00,30.8,22.2,29.83,NNE,25,1.0,2.0,70,0.00,,,0.00,520,WeatherCatV1.14B232,2013-03-20 06:06:00,
2013-03-20 02:11:00,30.8,22.2,29.83,NNE,26,5.0,6.0,70,0.00,,,0.00,520,WeatherCatV1.14B232,2013-03-20 06:11:00,
2013-03-20 02:16:00,30.7,22.1,29.83,NNE,25,2.0,4.0,70,0.00,,,0.00,520,WeatherCatV1.14B232,2013-03-20 06:16:00,
2013-03-20 02:21:00,30.8,21.5,29.84,NNE,26,1.0,6.0,68,0.00,,,0.00,520,WeatherCatV1.14B232,2013-03-20 06:21:00,
2013-03-20 02:26:00,30.8,21.2,29.84,NNE,26,3.0,3.0,67,0.00,,,0.00,520,WeatherCatV1.14B232,2013-03-20 06:26:00,
2013-03-20 02:31:00,30.8,21.2,29.84,NNE,26,2.0,7.0,67,0.00,,,0.00,520,WeatherCatV1.14B232,2013-03-20 06:31:00,
2013-03-20 02:36:00,30.7,21.1,29.84,NNE,25,4.0,6.0,67,0.00,,,0.00,520,WeatherCatV1.14B232,2013-03-20 06:36:00,
2013-03-20 02:41:00,30.6,21.0,29.84,NNE,26,1.0,2.0,67,0.00,,,0.00,520,WeatherCatV1.14B232,2013-03-20 06:41:00,
2013-03-20 02:46:00,30.4,21.1,29.84,NNE,26,0.0,2.0,68,0.00,,,0.00,520,WeatherCatV1.14B232,2013-03-20 06:46:00,
2013-03-20 02:51:00,30.3,21.0,29.84,NNE,26,2.0,3.0,68,0.00,,,0.00,520,WeatherCatV1.14B232,2013-03-20 06:51:00,
2013-03-20 02:56:00,30.2,20.9,29.84,NNE,26,2.0,4.0,68,0.00,,,0.00,520,WeatherCatV1.14B232,2013-03-20 06:56:00,
2013-03-20 03:01:00,30.0,20.7,29.84,NNE,26,2.0,3.0,68,0.00,,,0.00,520,WeatherCatV1.14B232,2013-03-20 07:01:00,
2013-03-20 03:06:00,30.0,20.7,29.84,NNE,26,2.0,5.0,68,0.00,,,0.00,520,WeatherCatV1.14B232,2013-03-20 07:06:00,
2013-03-20 03:11:00,30.0,20.4,29.84,NNE,26,3.0,5.0,67,0.00,,,0.00,520,WeatherCatV1.14B232,2013-03-20 07:11:00,
2013-03-20 03:16:00,30.1,19.8,29.84,NNE,25,2.0,3.0,65,0.00,,,0.00,520,WeatherCatV1.14B232,2013-03-20 07:16:00,
2013-03-20 03:21:00,30.0,20.0,29.84,NNE,26,5.0,5.0,66,0.00,,,0.00,520,WeatherCatV1.14B232,2013-03-20 07:21:00,
2013-03-20 03:26:00,30.0,19.7,29.84,NNE,25,1.0,5.0,65,0.00,,,0.00,520,WeatherCatV1.14B232,2013-03-20 07:26:00,
2013-03-20 03:31:00,29.9,19.6,29.84,NNE,26,2.0,3.0,65,0.00,,,0.00,520,WeatherCatV1.14B232,2013-03-20 07:31:00,
2013-03-20 03:36:00,29.8,19.5,29.84,NNE,26,1.0,3.0,65,0.00,,,0.00,520,WeatherCatV1.14B232,2013-03-20 07:36:00,
2013-03-20 03:41:00,29.7,19.4,29.84,NNE,26,1.0,1.0,65,0.00,,,0.00,520,WeatherCatV1.14B232,2013-03-20 07:41:00,
2013-03-20 03:46:00,29.5,19.2,29.84,NNE,25,1.0,2.0,65,0.00,,,0.00,520,WeatherCatV1.14B232,2013-03-20 07:46:00,
2013-03-20 03:51:00,29.3,19.4,29.84,NNE,26,1.0,1.0,66,0.00,,,0.00,520,WeatherCatV1.14B232,2013-03-20 07:51:00,
2013-03-20 03:56:00,29.1,19.2,29.84,NNE,26,0.0,1.0,66,0.00,,,0.00,520,WeatherCatV1.14B232,2013-03-20 07:56:00,
2013-03-20 04:01:00,29.0,19.4,29.84,NNE,26,0.0,1.0,67,0.00,,,0.00,520,WeatherCatV1.14B232,2013-03-20 08:01:00,
2013-03-20 04:06:00,28.6,19.1,29.84,NNE,26,0.0,1.0,67,0.00,,,0.00,520,WeatherCatV1.14B232,2013-03-20 08:06:00,
2013-03-20 04:11:00,28.4,18.9,29.84,NNE,25,0.0,0.0,67,0.00,,,0.00,520,WeatherCatV1.14B232,2013-03-20 08:11:00,
2013-03-20 04:16:00,28.3,18.8,29.84,NNE,26,2.0,4.0,67,0.00,,,0.00,520,WeatherCatV1.14B232,2013-03-20 08:16:00,
2013-03-20 04:21:00,28.7,19.2,29.84,NNE,25,0.0,2.0,67,0.00,,,0.00,520,WeatherCatV1.14B232,2013-03-20 08:21:00,
2013-03-20 04:26:00,29.0,19.4,29.84,NNE,25,2.0,3.0,67,0.00,,,0.00,520,WeatherCatV1.14B232,2013-03-20 08:26:00,
2013-03-20 04:31:00,29.0,19.4,29.84,NNE,26,2.0,3.0,67,0.00,,,0.00,520,WeatherCatV1.14B232,2013-03-20 08:31:00,
2013-03-20 04:36:00,29.1,19.9,29.84,NNE,26,2.0,4.0,68,0.00,,,0.00,520,WeatherCatV1.14B232,2013-03-20 08:36:00,
2013-03-20 04:41:00,29.1,19.5,29.84,NNE,26,1.0,4.0,67,0.00,,,0.00,520,WeatherCatV1.14B232,2013-03-20 08:41:00,
2013-03-20 04:46:00,29.0,19.4,29.85,NNE,26,0.0,2.0,67,0.00,,,0.00,520,WeatherCatV1.14B232,2013-03-20 08:46:00,
2013-03-20 04:51:00,29.0,19.8,29.85,NNE,25,2.0,7.0,68,0.00,,,0.00,520,WeatherCatV1.14B232,2013-03-20 08:51:00,
2013-03-20 04:56:00,28.9,19.3,29.85,NNE,25,3.0,3.0,67,0.00,,,0.00,520,WeatherCatV1.14B232,2013-03-20 08:56:00,
2013-03-20 05:01:00,29.2,19.6,29.85,NNE,26,1.0,4.0,67,0.00,,,0.00,520,WeatherCatV1.14B232,2013-03-20 09:01:00,
2013-03-20 05:06:00,29.2,19.6,29.86,NNE,26,1.0,4.0,67,0.00,,,0.00,520,WeatherCatV1.14B232,2013-03-20 09:06:00,
2013-03-20 05:11:00,29.0,19.8,29.85,NNE,25,2.0,3.0,68,0.00,,,0.00,520,WeatherCatV1.14B232,2013-03-20 09:11:00,
2013-03-20 05:16:00,28.9,19.7,29.86,NNE,25,1.0,2.0,68,0.00,,,0.00,520,WeatherCatV1.14B232,2013-03-20 09:16:00,
2013-03-20 05:21:00,28.7,19.8,29.86,NNE,26,1.0,2.0,69,0.00,,,0.00,520,WeatherCatV1.14B232,2013-03-20 09:21:00,
2013-03-20 05:26:00,28.7,19.8,29.85,NNE,26,0.0,3.0,69,0.00,,,0.00,520,WeatherCatV1.14B232,2013-03-20 09:26:00,
2013-03-20 05:31:00,28.8,19.9,29.85,NNE,26,2.0,3.0,69,0.00,,,0.00,520,WeatherCatV1.14B232,2013-03-20 09:31:00,
2013-03-20 05:36:00,28.8,19.9,29.85,NNE,26,0.0,1.0,69,0.00,,,0.00,520,WeatherCatV1.14B232,2013-03-20 09:36:00,
2013-03-20 05:41:00,28.5,20.0,29.86,NNE,25,2.0,2.0,70,0.00,,,0.00,520,WeatherCatV1.14B232,2013-03-20 09:41:00,
2013-03-20 05:46:00,28.4,19.9,29.86,NNE,26,1.0,1.0,70,0.00,,,0.00,520,WeatherCatV1.14B232,2013-03-20 09:46:00,
2013-03-20 05:51:00,28.2,19.7,29.86,NNE,26,1.0,3.0,70,0.00,,,0.00,520,WeatherCatV1.14B232,2013-03-20 09:51:00,
2013-03-20 05:56:00,28.2,19.7,29.86,NNE,26,0.0,0.0,70,0.00,,,0.00,520,WeatherCatV1.14B232,2013-03-20 09:56:00,
2013-03-20 06:01:00,28.1,19.9,29.86,NNE,26,0.0,1.0,71,0.00,,,0.00,520,WeatherCatV1.14B232,2013-03-20 10:01:00,
2013-03-20 06:06:00,28.0,19.8,29.86,NNE,26,1.0,2.0,71,0.00,,,0.00,520,WeatherCatV1.14B232,2013-03-20 10:06:00,
2013-03-20 06:11:00,28.1,19.6,29.86,NNE,26,0.0,5.0,70,0.00,,,0.00,520,WeatherCatV1.14B232,2013-03-20 10:11:00,
2013-03-20 06:16:00,28.1,19.9,29.86,NNE,26,1.0,1.0,71,0.00,,,0.00,520,WeatherCatV1.14B232,2013-03-20 10:16:00,
2013-03-20 06:21:00,28.1,20.3,29.86,NNE,26,1.0,3.0,72,0.00,,,0.00,520,WeatherCatV1.14B232,2013-03-20 10:21:00,
2013-03-20 06:26:00,28.1,19.6,29.86,NNE,26,0.0,2.0,70,0.00,,,0.00,520,WeatherCatV1.14B232,2013-03-20 10:26:00,
2013-03-20 06:31:00,28.0,19.8,29.86,NNE,25,1.0,4.0,71,0.00,,,0.00,520,WeatherCatV1.14B232,2013-03-20 10:31:00,
2013-03-20 06:36:00,28.2,19.7,29.86,NNE,25,1.0,2.0,70,0.00,,,0.00,520,WeatherCatV1.14B232,2013-03-20 10:36:00,
2013-03-20 06:41:00,28.2,20.0,29.86,NNE,25,2.0,2.0,71,0.00,,,0.00,520,WeatherCatV1.14B232,2013-03-20 10:41:00,
2013-03-20 06:46:00,28.2,19.7,29.86,NNE,26,3.0,4.0,70,0.00,,,0.00,520,WeatherCatV1.14B232,2013-03-20 10:46:00,
2013-03-20 06:51:00,28.6,19.7,29.87,NNE,25,0.0,1.0,69,0.00,,,0.00,520,WeatherCatV1.14B232,2013-03-20 10:51:00,
2013-03-20 06:56:00,28.4,19.9,29.87,NNE,25,2.0,2.0,70,0.00,,,0.00,520,WeatherCatV1.14B232,2013-03-20 10:56:00,
2013-03-20 07:01:00,28.4,19.9,29.86,NNE,26,0.0,1.0,70,0.00,,,0.00,520,WeatherCatV1.14B232,2013-03-20 11:01:00,
2013-03-20 07:06:00,28.5,20.0,29.86,NNE,25,0.0,1.0,70,0.00,,,0.00,520,WeatherCatV1.14B232,2013-03-20 11:06:00,
2013-03-20 07:11:00,28.5,20.0,29.87,NNE,26,1.0,2.0,70,0.00,,,0.00,520,WeatherCatV1.14B232,2013-03-20 11:11:00,
2013-03-20 07:16:00,28.6,20.1,29.87,NNE,26,1.0,2.0,70,0.00,,,0.00,520,WeatherCatV1.14B232,2013-03-20 11:16:00,
2013-03-20 07:21:00,28.6,20.1,29.87,NNE,26,1.0,2.0,70,0.00,,,0.00,520,WeatherCatV1.14B232,2013-03-20 11:21:00,
2013-03-20 07:26:00,28.6,20.1,29.87,NNE,26,1.0,1.0,70,0.00,,,0.00,520,WeatherCatV1.14B232,2013-03-20 11:26:00,
2013-03-20 07:31:00,28.6,20.1,29.87,NNE,26,0.0,0.0,70,0.00,,,0.00,520,WeatherCatV1.14B232,2013-03-20 11:31:00,
2013-03-20 07:36:00,28.5,20.0,29.87,NNE,26,0.0,0.0,70,0.00,,,0.00,520,WeatherCatV1.14B232,2013-03-20 11:36:00,
2013-03-20 07:41:00,28.4,20.2,29.87,NNE,26,0.0,2.0,71,0.00,,,0.00,520,WeatherCatV1.14B232,2013-03-20 11:41:00,
2013-03-20 07:46:00,28.4,19.9,29.87,NNE,26,0.0,1.0,70,0.00,,,0.00,520,WeatherCatV1.14B232,2013-03-20 11:46:00,
2013-03-20 07:51:00,28.8,20.3,29.87,NNE,26,3.0,3.0,70,0.00,,,0.00,520,WeatherCatV1.14B232,2013-03-20 11:51:00,
2013-03-20 07:53:00,28.9,20.0,29.87,NNE,26,1.0,1.0,69,0.00,,,0.00,520,WeatherCatV1.14B232,2013-03-20 11:53:00,
2013-03-20 07:56:00,29.3,20.4,29.87,NNE,26,0.0,3.0,69,0.00,,,0.00,520,WeatherCatV1.14B232,2013-03-20 11:56:00,
2013-03-20 08:01:00,29.9,21.0,29.87,NNE,26,1.0,1.0,69,0.00,,,0.00,520,WeatherCatV1.14B232,2013-03-20 12:01:00,
2013-03-20 08:06:00,30.5,20.9,29.87,NNE,26,2.0,3.0,67,0.00,,,0.00,520,WeatherCatV1.14B232,2013-03-20 12:06:00,
2013-03-20 08:11:00,31.2,21.2,29.87,NNE,25,1.0,2.0,66,0.00,,,0.00,520,WeatherCatV1.14B232,2013-03-20 12:11:00,
2013-03-20 08:16:00,31.6,21.6,29.87,NNE,25,1.0,2.0,66,0.00,,,0.00,520,WeatherCatV1.14B232,2013-03-20 12:16:00,
2013-03-20 08:21:00,32.0,21.2,29.87,NNE,25,0.0,6.0,64,0.00,,,0.00,520,WeatherCatV1.14B232,2013-03-20 12:21:00,
2013-03-20 08:26:00,32.4,21.2,29.86,NNE,26,1.0,5.0,63,0.00,,,0.00,520,WeatherCatV1.14B232,2013-03-20 12:26:00,
2013-03-20 08:31:00,32.5,21.3,29.86,NNE,26,3.0,7.0,63,0.00,,,0.00,520,WeatherCatV1.14B232,2013-03-20 12:31:00,
2013-03-20 08:36:00,32.7,21.1,29.86,NNE,26,6.0,6.0,62,0.00,,,0.00,520,WeatherCatV1.14B232,2013-03-20 12:36:00,
2013-03-20 08:41:00,33.0,21.4,29.87,NNE,26,2.0,3.0,62,0.00,,,0.00,520,WeatherCatV1.14B232,2013-03-20 12:41:00,
2013-03-20 08:46:00,33.1,20.7,29.86,NNE,26,2.0,4.0,60,0.00,,,0.00,520,WeatherCatV1.14B232,2013-03-20 12:46:00,
2013-03-20 08:51:00,33.3,21.3,29.86,NNE,26,3.0,8.0,61,0.00,,,0.00,520,WeatherCatV1.14B232,2013-03-20 12:51:00,
2013-03-20 08:56:00,33.3,20.5,29.86,NNE,25,3.0,5.0,59,0.00,,,0.00,520,WeatherCatV1.14B232,2013-03-20 12:56:00,
2013-03-20 09:01:00,33.5,21.1,29.86,NNE,26,2.0,6.0,60,0.00,,,0.00,520,WeatherCatV1.14B232,2013-03-20 13:01:00,
2013-03-20 09:06:00,33.5,21.1,29.86,NNE,26,1.0,7.0,60,0.00,,,0.00,520,WeatherCatV1.14B232,2013-03-20 13:06:00,
2013-03-20 09:11:00,33.7,20.9,29.86,NNE,26,2.0,8.0,59,0.00,,,0.00,520,WeatherCatV1.14B232,2013-03-20 13:11:00,
2013-03-20 09:16:00,33.9,20.7,29.86,NNE,26,3.0,6.0,58,0.00,,,0.00,520,WeatherCatV1.14B232,2013-03-20 13:16:00,
2013-03-20 09:21:00,33.7,20.1,29.85,NNE,26,5.0,6.0,57,0.00,,,0.00,520,WeatherCatV1.14B232,2013-03-20 13:21:00,
2013-03-20 09:26:00,33.9,21.1,29.85,NNE,26,2.0,4.0,59,0.00,,,0.00,520,WeatherCatV1.14B232,2013-03-20 13:26:00,
2013-03-20 09:31:00,34.1,20.1,29.85,NNE,26,3.0,7.0,56,0.00,,,0.00,520,WeatherCatV1.14B232,2013-03-20 13:31:00,
2013-03-20 09:36:00,34.1,20.1,29.85,NNE,26,2.0,6.0,56,0.00,,,0.00,520,WeatherCatV1.14B232,2013-03-20 13:36:00,
2013-03-20 09:41:00,34.2,20.2,29.85,NNE,26,4.0,7.0,56,0.00,,,0.00,520,WeatherCatV1.14B232,2013-03-20 13:41:00,
2013-03-20 09:46:00,34.1,20.1,29.86,NNE,25,5.0,5.0,56,0.00,,,0.00,520,WeatherCatV1.14B232,2013-03-20 13:46:00,
2013-03-20 09:51:00,34.1,20.1,29.86,NNE,26,3.0,6.0,56,0.00,,,0.00,520,WeatherCatV1.14B232,2013-03-20 13:51:00,
2013-03-20 09:56:00,34.2,20.2,29.86,NNE,26,1.0,4.0,56,0.00,,,0.00,520,WeatherCatV1.14B232,2013-03-20 13:56:00,
2013-03-20 10:01:00,34.4,19.1,29.86,NNE,26,2.0,9.0,53,0.00,,,0.00,520,WeatherCatV1.14B232,2013-03-20 14:01:00,
2013-03-20 10:06:00,34.6,20.1,29.86,NNE,26,1.0,4.0,55,0.00,,,0.00,520,WeatherCatV1.14B232,2013-03-20 14:06:00,
2013-03-20 10:11:00,35.4,20.9,29.86,NNE,26,4.0,5.0,55,0.00,,,0.00,520,WeatherCatV1.14B232,2013-03-20 14:11:00,
2013-03-20 10:16:00,35.5,20.1,29.86,NNE,26,2.0,7.0,53,0.00,,,0.00,520,WeatherCatV1.14B232,2013-03-20 14:16:00,
2013-03-20 10:21:00,35.5,19.6,29.86,NNE,26,2.0,5.0,52,0.00,,,0.00,520,WeatherCatV1.14B232,2013-03-20 14:21:00,
2013-03-20 10:26:00,35.7,20.3,29.86,NNE,26,4.0,4.0,53,0.00,,,0.00,520,WeatherCatV1.14B232,2013-03-20 14:26:00,
2013-03-20 10:31:00,35.9,20.0,29.86,NNE,26,2.0,4.0,52,0.00,,,0.00,520,WeatherCatV1.14B232,2013-03-20 14:31:00,
2013-03-20 10:36:00,36.8,20.4,29.86,NNE,26,4.0,8.0,51,0.00,,,0.00,520,WeatherCatV1.14B232,2013-03-20 14:36:00,
2013-03-20 10:41:00,37.1,19.7,29.86,NNE,26,2.0,8.0,49,0.00,,,0.00,520,WeatherCatV1.14B232,2013-03-20 14:41:00,
2013-03-20 10:46:00,37.2,19.8,29.86,NNE,26,5.0,8.0,49,0.00,,,0.00,520,WeatherCatV1.14B232,2013-03-20 14:46:00,
2013-03-20 10:51:00,37.4,20.5,29.86,NNE,26,2.0,5.0,50,0.00,,,0.00,520,WeatherCatV1.14B232,2013-03-20 14:51:00,
2013-03-20 10:56:00,37.9,20.9,29.86,NNE,26,2.0,4.0,50,0.00,,,0.00,520,WeatherCatV1.14B232,2013-03-20 14:56:00,
2013-03-20 11:01:00,38.4,20.9,29.86,NNE,26,5.0,8.0,49,0.00,,,0.01,520,WeatherCatV1.14B232,2013-03-20 15:01:00,
2013-03-20 11:06:00,37.6,21.6,29.86,NNE,26,2.0,6.0,52,0.00,,,0.01,520,WeatherCatV1.14B232,2013-03-20 15:06:00,
2013-03-20 11:11:00,36.8,20.4,29.86,NNE,26,6.0,8.0,51,0.00,,,0.01,520,WeatherCatV1.14B232,2013-03-20 15:11:00,
2013-03-20 11:16:00,36.9,20.9,29.86,NNE,26,2.0,5.0,52,0.00,,,0.01,520,WeatherCatV1.14B232,2013-03-20 15:16:00,
2013-03-20 11:21:00,37.7,20.8,29.86,NNE,26,1.0,6.0,50,0.00,,,0.01,520,WeatherCatV1.14B232,2013-03-20 15:21:00,
2013-03-20 11:26:00,38.2,20.7,29.86,NNE,26,4.0,7.0,49,0.00,,,0.02,520,WeatherCatV1.14B232,2013-03-20 15:26:00,
2013-03-20 11:31:00,37.7,21.2,29.86,NNE,26,3.0,10.0,51,0.00,,,0.02,520,WeatherCatV1.14B232,2013-03-20 15:31:00,
2013-03-20 11:36:00,38.5,21.5,29.86,NNE,26,2.0,7.0,50,0.00,,,0.02,520,WeatherCatV1.14B232,2013-03-20 15:36:00,
2013-03-20 11:41:00,38.9,20.9,29.86,NNE,26,4.0,9.0,48,0.00,,,0.02,520,WeatherCatV1.14B232,2013-03-20 15:41:00,
2013-03-20 11:46:00,38.8,20.8,29.86,NNE,26,5.0,8.0,48,0.00,,,0.02,520,WeatherCatV1.14B232,2013-03-20 15:46:00,
2013-03-20 11:51:00,38.8,21.3,29.86,NNE,26,3.0,6.0,49,0.00,,,0.03,520,WeatherCatV1.14B232,2013-03-20 15:51:00,
2013-03-20 11:56:00,38.0,21.5,29.85,NNE,26,2.0,3.0,51,0.00,,,0.03,520,WeatherCatV1.14B232,2013-03-20 15:56:00,
2013-03-20 11:57:00,37.9,20.9,29.85,NNE,26,2.0,3.0,50,0.00,,,0.03,520,WeatherCatV1.14B232,2013-03-20 15:57:00,
2013-03-20 12:01:00,37.5,20.6,29.85,NNE,26,3.0,6.0,50,0.00,,,0.03,520,WeatherCatV1.14B232,2013-03-20 16:01:00,
2013-03-20 12:06:00,38.1,21.1,29.85,NNE,26,4.0,6.0,50,0.00,,,0.03,520,WeatherCatV1.14B232,2013-03-20 16:06:00,
2013-03-20 12:11:00,37.8,19.4,29.85,NNE,26,3.0,7.0,47,0.00,,,0.03,520,WeatherCatV1.14B232,2013-03-20 16:11:00,
2013-03-20 12:16:00,37.8,20.8,29.85,NNE,26,3.0,3.0,50,0.00,,,0.03,520,WeatherCatV1.14B232,2013-03-20 16:16:00,
2013-03-20 12:21:00,38.2,21.2,29.85,NNE,26,4.0,4.0,50,0.00,,,0.03,520,WeatherCatV1.14B232,2013-03-20 16:21:00,
2013-03-20 12:26:00,38.2,21.2,29.84,NNE,25,2.0,5.0,50,0.00,,,0.03,520,WeatherCatV1.14B232,2013-03-20 16:26:00,
2013-03-20 12:31:00,38.1,21.1,29.84,NNE,26,5.0,8.0,50,0.00,,,0.03,520,WeatherCatV1.14B232,2013-03-20 16:31:00,
2013-03-20 12:36:00,38.1,21.1,29.84,NNE,26,1.0,5.0,50,0.00,,,0.03,520,WeatherCatV1.14B232,2013-03-20 16:36:00,
2013-03-20 12:41:00,39.1,21.6,29.84,NNE,26,2.0,7.0,49,0.00,,,0.04,520,WeatherCatV1.14B232,2013-03-20 16:41:00,
2013-03-20 12:46:00,38.9,20.9,29.84,NNE,26,3.0,3.0,48,0.00,,,0.04,520,WeatherCatV1.14B232,2013-03-20 16:46:00,
2013-03-20 12:51:00,38.9,20.4,29.84,NNE,26,4.0,6.0,47,0.00,,,0.04,520,WeatherCatV1.14B232,2013-03-20 16:51:00,
2013-03-20 12:56:00,38.1,20.2,29.84,NNE,26,3.0,4.0,48,0.00,,,0.04,520,WeatherCatV1.14B232,2013-03-20 16:56:00,
2013-03-20 13:01:00,38.0,20.1,29.83,NNE,26,4.0,5.0,48,0.00,,,0.04,520,WeatherCatV1.14B232,2013-03-20 17:01:00,
2013-03-20 13:06:00,38.5,21.0,29.84,NNE,26,2.0,4.0,49,0.00,,,0.04,520,WeatherCatV1.14B232,2013-03-20 17:06:00,
2013-03-20 13:11:00,39.5,21.0,29.83,NNE,26,3.0,3.0,47,0.00,,,0.04,520,WeatherCatV1.14B232,2013-03-20 17:11:00,
2013-03-20 13:16:00,40.5,20.9,29.83,NNE,26,2.0,8.0,45,0.00,,,0.04,520,WeatherCatV1.14B232,2013-03-20 17:16:00,
2013-03-20 13:21:00,40.4,20.2,29.83,NNE,26,2.0,6.0,44,0.00,,,0.04,520,WeatherCatV1.14B232,2013-03-20 17:21:00,
2013-03-20 13:26:00,40.4,20.2,29.83,NNE,26,3.0,5.0,44,0.00,,,0.04,520,WeatherCatV1.14B232,2013-03-20 17:26:00,
2013-03-20 13:31:00,40.6,20.9,29.83,NNE,26,2.0,2.0,45,0.00,,,0.04,520,WeatherCatV1.14B232,2013-03-20 17:31:00,
2013-03-20 13:36:00,40.5,20.3,29.82,NNE,26,3.0,8.0,44,0.00,,,0.04,520,WeatherCatV1.14B232,2013-03-20 17:36:00,
2013-03-20 13:41:00,40.6,20.4,29.82,NNE,26,3.0,5.0,44,0.00,,,0.04,520,WeatherCatV1.14B232,2013-03-20 17:41:00,
2013-03-20 13:46:00,40.4,20.2,29.82,NNE,26,4.0,7.0,44,0.00,,,0.04,520,WeatherCatV1.14B232,2013-03-20 17:46:00,
2013-03-20 13:51:00,40.5,20.9,29.82,NNE,26,1.0,4.0,45,0.00,,,0.04,520,WeatherCatV1.14B232,2013-03-20 17:51:00,
2013-03-20 13:56:00,40.9,20.7,29.82,NNE,26,0.0,4.0,44,0.00,,,0.04,520,WeatherCatV1.14B232,2013-03-20 17:56:00,
2013-03-20 14:01:00,41.2,19.9,29.81,NNE,26,3.0,7.0,42,0.00,,,0.04,520,WeatherCatV1.14B232,2013-03-20 18:01:00,
2013-03-20 14:06:00,41.1,21.4,29.81,NNE,26,1.0,2.0,45,0.00,,,0.04,520,WeatherCatV1.14B232,2013-03-20 18:06:00,
2013-03-20 14:11:00,41.4,20.0,29.81,NNE,26,2.0,3.0,42,0.00,,,0.04,520,WeatherCatV1.14B232,2013-03-20 18:11:00,
2013-03-20 14:16:00,41.2,20.4,29.80,NNE,26,3.0,6.0,43,0.00,,,0.04,520,WeatherCatV1.14B232,2013-03-20 18:16:00,
2013-03-20 14:21:00,41.6,20.2,29.80,NNE,26,6.0,8.0,42,0.00,,,0.04,520,WeatherCatV1.14B232,2013-03-20 18:21:00,
2013-03-20 14:26:00,41.1,20.3,29.80,NNE,26,3.0,6.0,43,0.00,,,0.04,520,WeatherCatV1.14B232,2013-03-20 18:26:00,
2013-03-20 14:31:00,40.9,20.1,29.80,NNE,26,1.0,5.0,43,0.00,,,0.04,520,WeatherCatV1.14B232,2013-03-20 18:31:00,
2013-03-20 14:36:00,41.7,19.8,29.80,NNE,26,2.0,7.0,41,0.00,,,0.04,520,WeatherCatV1.14B232,2013-03-20 18:36:00,
2013-03-20 14:41:00,42.2,20.8,29.79,NNE,25,2.0,4.0,42,0.00,,,0.04,520,WeatherCatV1.14B232,2013-03-20 18:41:00,
2013-03-20 14:46:00,41.7,19.2,29.79,NNE,26,3.0,7.0,40,0.00,,,0.04,520,WeatherCatV1.14B232,2013-03-20 18:46:00,
2013-03-20 14:51:00,41.1,19.2,29.79,NNE,26,2.0,10.0,41,0.00,,,0.04,520,WeatherCatV1.14B232,2013-03-20 18:51:00,
2013-03-20 14:56:00,40.9,19.0,29.79,NNE,26,4.0,7.0,41,0.00,,,0.04,520,WeatherCatV1.14B232,2013-03-20 18:56:00,
2013-03-20 15:01:00,41.2,20.4,29.79,NNE,26,1.0,3.0,43,0.00,,,0.04,520,WeatherCatV1.14B232,2013-03-20 19:01:00,
2013-03-20 15:06:00,41.4,20.6,29.79,NNE,26,3.0,6.0,43,0.00,,,0.04,520,WeatherCatV1.14B232,2013-03-20 19:06:00,
2013-03-20 15:11:00,41.9,20.5,29.79,NNE,26,1.0,7.0,42,0.00,,,0.04,520,WeatherCatV1.14B232,2013-03-20 19:11:00,
2013-03-20 15:16:00,42.0,20.6,29.79,NNE,26,2.0,4.0,42,0.00,,,0.04,520,WeatherCatV1.14B232,2013-03-20 19:16:00,
2013-03-20 15:21:00,42.5,20.5,29.79,NNE,26,3.0,9.0,41,0.00,,,0.04,520,WeatherCatV1.14B232,2013-03-20 19:21:00,
2013-03-20 15:26:00,41.9,20.5,29.79,NNE,26,1.0,7.0,42,0.00,,,0.04,520,WeatherCatV1.14B232,2013-03-20 19:26:00,
2013-03-20 15:31:00,41.8,21.0,29.79,NNE,26,4.0,4.0,43,0.00,,,0.04,520,WeatherCatV1.14B232,2013-03-20 19:31:00,
2013-03-20 15:36:00,41.3,19.4,29.78,NNE,26,7.0,9.0,41,0.00,,,0.04,520,WeatherCatV1.14B232,2013-03-20 19:36:00,
2013-03-20 15:41:00,41.0,19.7,29.79,NNE,26,5.0,9.0,42,0.00,,,0.04,520,WeatherCatV1.14B232,2013-03-20 19:41:00,
2013-03-20 15:46:00,41.0,19.7,29.78,NNE,26,1.0,3.0,42,0.00,,,0.04,520,WeatherCatV1.14B232,2013-03-20 19:46:00,
2013-03-20 15:51:00,40.9,19.6,29.78,NNE,26,1.0,3.0,42,0.00,,,0.04,520,WeatherCatV1.14B232,2013-03-20 19:51:00,
2013-03-20 15:56:00,40.9,20.1,29.78,NNE,26,3.0,4.0,43,0.00,,,0.04,520,WeatherCatV1.14B232,2013-03-20 19:56:00,
2013-03-20 16:01:00,41.1,19.2,29.78,NNE,26,5.0,7.0,41,0.00,,,0.04,520,WeatherCatV1.14B232,2013-03-20 20:01:00,
2013-03-20 16:02:00,41.2,18.7,29.78,NNE,25,3.0,7.0,40,0.00,,,0.04,520,WeatherCatV1.14B232,2013-03-20 20:02:00,
2013-03-20 16:06:00,41.4,18.3,29.78,NNE,26,4.0,6.0,39,0.00,,,0.04,520,WeatherCatV1.14B232,2013-03-20 20:06:00,
2013-03-20 16:07:00,41.5,18.4,29.78,NNE,26,3.0,6.0,39,0.00,,,0.04,520,WeatherCatV1.14B232,2013-03-20 20:07:00,
2013-03-20 16:11:00,42.0,18.9,29.78,NNE,26,3.0,11.0,39,0.00,,,0.04,520,WeatherCatV1.14B232,2013-03-20 20:11:00,
2013-03-20 16:16:00,41.9,18.8,29.78,NNE,26,4.0,6.0,39,0.00,,,0.04,520,WeatherCatV1.14B232,2013-03-20 20:16:00,
2013-03-20 16:21:00,41.5,19.0,29.78,NNE,26,4.0,6.0,40,0.00,,,0.04,520,WeatherCatV1.14B232,2013-03-20 20:21:00,
2013-03-20 16:26:00,41.2,18.7,29.78,NNE,26,1.0,5.0,40,0.00,,,0.04,520,WeatherCatV1.14B232,2013-03-20 20:26:00,
2013-03-20 16:31:00,40.9,18.5,29.78,NNE,26,2.0,5.0,40,0.00,,,0.04,520,WeatherCatV1.14B232,2013-03-20 20:31:00,
2013-03-20 16:36:00,40.7,18.9,29.78,NNE,26,2.0,4.0,41,0.00,,,0.04,520,WeatherCatV1.14B232,2013-03-20 20:36:00,
2013-03-20 16:41:00,40.7,19.4,29.78,NNE,26,3.0,5.0,42,0.00,,,0.04,520,WeatherCatV1.14B232,2013-03-20 20:41:00,
2013-03-20 16:46:00,40.7,19.4,29.77,NNE,26,1.0,4.0,42,0.00,,,0.04,520,WeatherCatV1.14B232,2013-03-20 20:46:00,
2013-03-20 16:51:00,40.6,18.8,29.77,NNE,26,3.0,3.0,41,0.00,,,0.04,520,WeatherCatV1.14B232,2013-03-20 20:51:00,
2013-03-20 16:56:00,40.5,19.2,29.77,NNE,25,1.0,5.0,42,0.00,,,0.04,520,WeatherCatV1.14B232,2013-03-20 20:56:00,
2013-03-20 17:01:00,40.5,20.3,29.77,NNE,26,1.0,2.0,44,0.00,,,0.04,520,WeatherCatV1.14B232,2013-03-20 21:01:00,
2013-03-20 17:06:00,40.3,19.6,29.77,NNE,26,3.0,3.0,43,0.00,,,0.04,520,WeatherCatV1.14B232,2013-03-20 21:06:00,
2013-03-20 17:11:00,40.1,19.4,29.77,NNE,26,2.0,3.0,43,0.00,,,0.04,520,WeatherCatV1.14B232,2013-03-20 21:11:00,
2013-03-20 17:16:00,39.9,20.3,29.77,NNE,26,4.0,4.0,45,0.00,,,0.04,520,WeatherCatV1.14B232,2013-03-20 21:16:00,
2013-03-20 17:21:00,40.1,20.0,29.77,NNE,26,2.0,4.0,44,0.00,,,0.04,520,WeatherCatV1.14B232,2013-03-20 21:21:00,
2013-03-20 17:26:00,40.6,20.9,29.77,NNE,26,2.0,4.0,45,0.00,,,0.04,520,WeatherCatV1.14B232,2013-03-20 21:26:00,
2013-03-20 17:31:00,40.8,20.6,29.77,NNE,26,1.0,3.0,44,0.00,,,0.04,520,WeatherCatV1.14B232,2013-03-20 21:31:00,
2013-03-20 17:36:00,40.8,20.1,29.77,NNE,26,2.0,3.0,43,0.00,,,0.04,520,WeatherCatV1.14B232,2013-03-20 21:36:00,
2013-03-20 17:41:00,41.2,21.0,29.77,NNE,26,2.0,3.0,44,0.00,,,0.04,520,WeatherCatV1.14B232,2013-03-20 21:41:00,
2013-03-20 17:46:00,41.4,20.6,29.77,NNE,26,2.0,4.0,43,0.00,,,0.04,520,WeatherCatV1.14B232,2013-03-20 21:46:00,
2013-03-20 17:51:00,41.3,20.5,29.77,NNE,26,8.0,8.0,43,0.00,,,0.04,520,WeatherCatV1.14B232,2013-03-20 21:51:00,
2013-03-20 17:56:00,41.2,20.4,29.77,NNE,26,1.0,5.0,43,0.00,,,0.04,520,WeatherCatV1.14B232,2013-03-20 21:56:00,
2013-03-20 18:01:00,41.0,20.2,29.78,NNE,25,1.0,3.0,43,0.00,,,0.04,520,WeatherCatV1.14B232,2013-03-20 22:01:00,
2013-03-20 18:06:00,40.5,20.3,29.77,NNE,26,1.0,3.0,44,0.00,,,0.04,520,WeatherCatV1.14B232,2013-03-20 22:06:00,
2013-03-20 18:11:00,40.1,20.0,29.77,NNE,26,1.0,3.0,44,0.00,,,0.04,520,WeatherCatV1.14B232,2013-03-20 22:11:00,
2013-03-20 18:16:00,40.0,19.9,29.78,NNE,26,2.0,4.0,44,0.00,,,0.04,520,WeatherCatV1.14B232,2013-03-20 22:16:00,
2013-03-20 18:21:00,40.0,20.9,29.78,NNE,26,2.0,4.0,46,0.00,,,0.04,520,WeatherCatV1.14B232,2013-03-20 22:21:00,
2013-03-20 18:26:00,39.9,20.3,29.78,NNE,26,1.0,3.0,45,0.00,,,0.04,520,WeatherCatV1.14B232,2013-03-20 22:26:00,
2013-03-20 18:31:00,39.9,20.3,29.78,NNE,26,1.0,2.0,45,0.00,,,0.04,520,WeatherCatV1.14B232,2013-03-20 22:31:00,
2013-03-20 18:36:00,39.9,20.8,29.78,NNE,26,1.0,1.0,46,0.00,,,0.04,520,WeatherCatV1.14B232,2013-03-20 22:36:00,
2013-03-20 18:41:00,39.7,20.1,29.78,NNE,26,3.0,5.0,45,0.00,,,0.04,520,WeatherCatV1.14B232,2013-03-20 22:41:00,
2013-03-20 18:46:00,39.5,20.5,29.78,NNE,26,2.0,3.0,46,0.00,,,0.04,520,WeatherCatV1.14B232,2013-03-20 22:46:00,
2013-03-20 18:51:00,39.2,20.7,29.78,NNE,26,1.0,3.0,47,0.00,,,0.04,520,WeatherCatV1.14B232,2013-03-20 22:51:00,
2013-03-20 18:56:00,38.9,21.4,29.78,NNE,25,2.0,4.0,49,0.00,,,0.04,520,WeatherCatV1.14B232,2013-03-20 22:56:00,
2013-03-20 19:01:00,38.7,20.7,29.78,NNE,25,2.0,3.0,48,0.00,,,0.04,520,WeatherCatV1.14B232,2013-03-20 23:01:00,
2013-03-20 19:06:00,38.4,20.9,29.78,NNE,25,1.0,2.0,49,0.00,,,0.04,520,WeatherCatV1.14B232,2013-03-20 23:06:00,
2013-03-20 19:11:00,38.1,21.1,29.78,NNE,26,0.0,2.0,50,0.00,,,0.04,520,WeatherCatV1.14B232,2013-03-20 23:11:00,
2013-03-20 19:16:00,37.8,20.8,29.78,NNE,26,1.0,2.0,50,0.00,,,0.04,520,WeatherCatV1.14B232,2013-03-20 23:16:00,
2013-03-20 19:21:00,37.9,21.4,29.78,NNE,25,0.0,1.0,51,0.00,,,0.04,520,WeatherCatV1.14B232,2013-03-20 23:21:00,
2013-03-20 19:26:00,37.6,21.1,29.79,NNE,26,1.0,4.0,51,0.00,,,0.04,520,WeatherCatV1.14B232,2013-03-20 23:26:00,
2013-03-20 19:31:00,37.5,20.6,29.79,NNE,26,1.0,2.0,50,0.00,,,0.04,520,WeatherCatV1.14B232,2013-03-20 23:31:00,
2013-03-20 19:36:00,37.6,21.1,29.79,NNE,26,0.0,1.0,51,0.00,,,0.04,520,WeatherCatV1.14B232,2013-03-20 23:36:00,
2013-03-20 19:41:00,37.3,20.9,29.79,NNE,25,1.0,1.0,51,0.00,,,0.04,520,WeatherCatV1.14B232,2013-03-20 23:41:00,
2013-03-20 19:46:00,37.1,20.7,29.79,NNE,26,0.0,1.0,51,0.00,,,0.04,520,WeatherCatV1.14B232,2013-03-20 23:46:00,
2013-03-20 19:51:00,36.8,20.8,29.79,NNE,26,0.0,1.0,52,0.00,,,0.04,520,WeatherCatV1.14B232,2013-03-20 23:51:00,
2013-03-20 19:56:00,36.3,21.3,29.79,NNE,26,0.0,0.0,54,0.00,,,0.04,520,WeatherCatV1.14B232,2013-03-20 23:56:00,
2013-03-20 20:01:00,35.7,20.7,29.79,NNE,26,0.0,0.0,54,0.00,,,0.04,520,WeatherCatV1.14B232,2013-03-21 00:01:00,
2013-03-20 20:06:00,35.1,20.6,29.79,NNE,26,0.0,0.0,55,0.00,,,0.04,520,WeatherCatV1.14B232,2013-03-21 00:06:00,
2013-03-20 20:11:00,34.5,20.9,29.79,NNE,26,0.0,0.0,57,0.00,,,0.04,520,WeatherCatV1.14B232,2013-03-21 00:11:00,
2013-03-20 20:16:00,34.2,20.2,29.79,NNE,26,0.0,0.0,56,0.00,,,0.04,520,WeatherCatV1.14B232,2013-03-21 00:16:00,
2013-03-20 20:21:00,33.9,20.7,29.79,NNE,26,0.0,0.0,58,0.00,,,0.04,520,WeatherCatV1.14B232,2013-03-21 00:21:00,
2013-03-20 20:26:00,33.6,20.4,29.79,NNE,26,0.0,0.0,58,0.00,,,0.04,520,WeatherCatV1.14B232,2013-03-21 00:26:00,
2013-03-20 20:31:00,33.4,20.2,29.80,NNE,26,0.0,0.0,58,0.00,,,0.04,520,WeatherCatV1.14B232,2013-03-21 00:31:00,
2013-03-20 20:36:00,33.0,20.3,29.80,NNE,25,0.0,0.0,59,0.00,,,0.04,520,WeatherCatV1.14B232,2013-03-21 00:36:00,
2013-03-20 20:41:00,33.0,20.3,29.79,NNE,25,0.0,1.0,59,0.00,,,0.04,520,WeatherCatV1.14B232,2013-03-21 00:41:00,
2013-03-20 20:46:00,32.9,20.6,29.80,NNE,26,0.0,0.0,60,0.00,,,0.04,520,WeatherCatV1.14B232,2013-03-21 00:46:00,
2013-03-20 20:51:00,32.6,20.3,29.80,NNE,26,0.0,0.0,60,0.00,,,0.04,520,WeatherCatV1.14B232,2013-03-21 00:51:00,
2013-03-20 20:56:00,32.4,19.7,29.80,NNE,26,0.0,0.0,59,0.00,,,0.04,520,WeatherCatV1.14B232,2013-03-21 00:56:00,
2013-03-20 21:01:00,32.6,19.9,29.80,NNE,26,0.0,0.0,59,0.00,,,0.04,520,WeatherCatV1.14B232,2013-03-21 01:01:00,
2013-03-20 21:06:00,32.9,20.2,29.80,NNE,26,0.0,0.0,59,0.00,,,0.04,520,WeatherCatV1.14B232,2013-03-21 01:06:00,
2013-03-20 21:11:00,33.0,20.7,29.80,NNE,26,0.0,0.0,60,0.00,,,0.04,520,WeatherCatV1.14B232,2013-03-21 01:11:00,
2013-03-20 21:16:00,33.1,21.1,29.80,NNE,26,0.0,0.0,61,0.00,,,0.04,520,WeatherCatV1.14B232,2013-03-21 01:16:00,
2013-03-20 21:21:00,33.0,21.0,29.80,NNE,26,0.0,0.0,61,0.00,,,0.04,520,WeatherCatV1.14B232,2013-03-21 01:21:00,
2013-03-20 21:26:00,32.9,21.3,29.80,NNE,25,0.0,0.0,62,0.00,,,0.04,520,WeatherCatV1.14B232,2013-03-21 01:26:00,
2013-03-20 21:31:00,32.9,21.3,29.81,NNE,26,0.0,0.0,62,0.00,,,0.04,520,WeatherCatV1.14B232,2013-03-21 01:31:00,
2013-03-20 21:36:00,33.0,21.0,29.81,NNE,25,0.0,0.0,61,0.00,,,0.04,520,WeatherCatV1.14B232,2013-03-21 01:36:00,
2013-03-20 21:41:00,32.9,20.9,29.81,NNE,25,0.0,1.0,61,0.00,,,0.04,520,WeatherCatV1.14B232,2013-03-21 01:41:00,
2013-03-20 21:46:00,32.9,20.9,29.81,NNE,25,0.0,1.0,61,0.00,,,0.04,520,WeatherCatV1.14B232,2013-03-21 01:46:00,
2013-03-20 21:51:00,32.8,21.2,29.81,NNE,26,0.0,0.0,62,0.00,,,0.04,520,WeatherCatV1.14B232,2013-03-21 01:51:00,
2013-03-20 21:56:00,32.7,21.1,29.81,NNE,25,0.0,0.0,62,0.00,,,0.04,520,WeatherCatV1.14B232,2013-03-21 01:56:00,
2013-03-20 22:01:00,32.9,21.3,29.81,NNE,26,0.0,0.0,62,0.00,,,0.04,520,WeatherCatV1.14B232,2013-03-21 02:01:00,
2013-03-20 22:06:00,32.9,22.1,29.82,NNE,26,0.0,0.0,64,0.00,,,0.04,520,WeatherCatV1.14B232,2013-03-21 02:06:00,
2013-03-20 22:11:00,33.0,22.5,29.82,NNE,25,0.0,1.0,65,0.00,,,0.04,520,WeatherCatV1.14B232,2013-03-21 02:11:00,
2013-03-20 22:16:00,33.2,22.7,29.82,NNE,26,0.0,1.0,65,0.00,,,0.04,520,WeatherCatV1.14B232,2013-03-21 02:16:00,
2013-03-20 22:21:00,33.4,22.6,29.82,NNE,26,0.0,1.0,64,0.00,,,0.04,520,WeatherCatV1.14B232,2013-03-21 02:21:00,
2013-03-20 22:26:00,33.5,23.0,29.82,NNE,25,0.0,0.0,65,0.00,,,0.04,520,WeatherCatV1.14B232,2013-03-21 02:26:00,
2013-03-20 22:31:00,33.6,23.5,29.82,NNE,26,0.0,0.0,66,0.00,,,0.04,520,WeatherCatV1.14B232,2013-03-21 02:31:00,
2013-03-20 22:36:00,33.6,23.5,29.82,NNE,26,0.0,1.0,66,0.00,,,0.04,520,WeatherCatV1.14B232,2013-03-21 02:36:00,
2013-03-20 22:41:00,33.6,23.1,29.82,NNE,26,0.0,2.0,65,0.00,,,0.04,520,WeatherCatV1.14B232,2013-03-21 02:41:00,
2013-03-20 22:46:00,33.5,23.4,29.82,NNE,26,0.0,1.0,66,0.00,,,0.04,520,WeatherCatV1.14B232,2013-03-21 02:46:00,
2013-03-20 22:51:00,33.5,23.4,29.83,NNE,26,0.0,0.0,66,0.00,,,0.04,520,WeatherCatV1.14B232,2013-03-21 02:51:00,
2013-03-20 22:56:00,33.5,23.4,29.83,NNE,26,0.0,1.0,66,0.00,,,0.04,520,WeatherCatV1.14B232,2013-03-21 02:56:00,
2013-03-20 23:01:00,33.5,23.7,29.83,NNE,26,0.0,1.0,67,0.00,,,0.04,520,WeatherCatV1.14B232,2013-03-21 03:01:00,
2013-03-20 23:06:00,33.3,24.2,29.83,NNE,25,0.0,0.0,69,0.00,,,0.04,520,WeatherCatV1.14B232,2013-03-21 03:06:00,
2013-03-20 23:11:00,33.1,24.1,29.83,NNE,25,0.0,0.0,69,0.00,,,0.04,520,WeatherCatV1.14B232,2013-03-21 03:11:00,
2013-03-20 23:16:00,33.0,23.6,29.83,NNE,26,0.0,0.0,68,0.00,,,0.04,520,WeatherCatV1.14B232,2013-03-21 03:16:00,
2013-03-20 23:21:00,33.1,23.7,29.83,NNE,25,1.0,2.0,68,0.00,,,0.04,520,WeatherCatV1.14B232,2013-03-21 03:21:00,
2013-03-20 23:26:00,33.1,24.1,29.83,NNE,26,0.0,0.0,69,0.00,,,0.04,520,WeatherCatV1.14B232,2013-03-21 03:26:00,
2013-03-20 23:31:00,33.2,24.5,29.83,NNE,26,0.0,1.0,70,0.00,,,0.04,520,WeatherCatV1.14B232,2013-03-21 03:31:00,
2013-03-20 23:36:00,33.2,24.1,29.83,NNE,25,0.0,0.0,69,0.00,,,0.04,520,WeatherCatV1.14B232,2013-03-21 03:36:00,
2013-03-20 23:41:00,33.2,23.8,29.82,NNE,25,0.0,1.0,68,0.00,,,0.04,520,WeatherCatV1.14B232,2013-03-21 03:41:00,
2013-03-20 23:46:00,33.3,23.9,29.83,NNE,26,0.0,0.0,68,0.00,,,0.04,520,WeatherCatV1.14B232,2013-03-21 03:46:00,
2013-03-20 23:51:00,33.4,23.6,29.83,NNE,26,0.0,1.0,67,0.00,,,0.04,520,WeatherCatV1.14B232,2013-03-21 03:51:00,
2013-03-20 23:56:00,33.5,23.7,29.83,NNE,26,0.0,1.0,67,0.00,,,0.04,520,WeatherCatV1.14B232,2013-03-21 03:56:00,